Погода в Гари

Погода в Гари : погода сейчас, прогноз погоды и архив. Всё, что Вы хотите узнать о погоде в Гари!

Поиск расширенной информации на нашем сайте:

Другие новости

Новости СМИ2

Главная страница сайта

Новости сайта

03.07.2017

Напоминаем, что на нашем специализированном сайте Метеоцентр.Азия вы можете получить высокодетализированные автоматические прогнозы погоды по пунктам России, СНГ и мира в авиационном формате (включающие направление и скорость ветра, видимость, явления погоды, количество и форму облачности, нижнюю и верхнюю границу облачности).


Погода в Гари - сегодня

Время (UTC), дата Ветер
(°,м/с) 
Видим.   Явления Облачность Т
(°С)
Тd
(°С)
f(%) Тe
(°С)
Pmin
(гПа)
dP
(гПа)
Po
(мм)
O2
(г/м3)
Тmin Tmax R s Состояние
почвы
21 20.11.17 170 (Ю) 10 км  {снег}  9/0 средняя 
[Ac As]
-0.6 -1.2 96 -4  1018.8  -0.8  752  304           
00 21.11.17 170 (Ю) 10 км  {снег}  9/0 средняя 
[Ac und]
-0.4 -1 96 -3  1018.9  0.1  752  303           
03 21.11.17 190 (Ю) 10 км    8/0 средняя 
[Ac As]
+0.4 -0.6 93 -1  1019.9  753  303  -1.8    0.2  равномерный
сухой снег
100% 
06 21.11.17 170 (Ю) 20000 м    8/0 средняя 
[Ac trans]
+0.8 -0.3 92 -2  1020.6  0.8  753  303           
09 21.11.17 170 (Ю) 20000 м    8/0 средняя 
[Ac trans]
+1.6 +0.5 92 1021.2  0.6  754  302           
12 21.11.17 150 (ЮВ) 20000 м    8/0 средняя 
[Ac As]
+0.8 -0.3 92 -2  1021  -0.2  753  303           
15 21.11.17 150 (ЮВ) 10 км    8/0 средняя 
[Ac As]
+1 -0.1 92 -1  1020.1  -0.9  753  302    +2       
18 21.11.17 150 (ЮВ) 10 км    3/0 средняя 
[Ac trans]
+0.8 -0.6 90 -2  1018.4  -1.7  752  302           
21 21.11.17 160 (Ю) 10 км    4/0 средняя 
[Ac trans]
-0.7 -2.6 87 -4  1017.7  -0.8  751  304           
00 22.11.17 160 (Ю) 10 км    6/0 средняя 
[Ac trans]
-1.4 -3.7 84 -5  1017.6  -0.2  751  304           
03 22.11.17 160 (Ю) 10 км    4/0 средняя 
[Ac trans]
-3.1 -4.5 90 -6  1017.6  -0.1  751  306  -3.1      равномерный
сухой снег
100% 
06 22.11.17 160 (Ю) 20000 м    1/0 верхняя 
[Ci fib]
-3.2 -5.3 85 -6  1017.9  0.3  751  307  -4.1         
09 22.11.17 160 (Ю) 20000 м    ясно 
-1.6 -5 78 -4  1017.9  751  305           
12 22.11.17 140 (ЮВ) 20000 м    ясно 
-3.4 -5.9 83 -6  1018.3  0.3  751  307           
15 22.11.17 150 (ЮВ) 10 км    8/0 верхняя 
[Ci fib]
-4.3 -6.6 84 -7  1018.1  -0.2  751  308    -1.2       
18 22.11.17 140 (ЮВ) 10 км    6/0 верхняя 
[Ci fib]
-4.4 -6.4 86 -8  1017.7  -0.4  751  308           
21 22.11.17 140 (ЮВ) 10 км    6/0 верхняя 
[Ci fib]
-4.4 -6.4 86 -8  1017.4  -0.3  751  308           
00 23.11.17 130 (ЮВ) 10 км    6/0 верхняя 
[Ci fib]
-4.8 -6.5 88 -8  1017.1  -0.3  750  308           
03 23.11.17 140 (ЮВ) 10 км    4/0 верхняя 
[Ci fib]
-4.9 -6.2 91 -6  1017.5  0.4  751  309  -4.9      равномерный
сухой снег
100% 
06 23.11.17 150 (ЮВ) 20000 м    9/0 средняя 
[Ac As]
-5.2 -7.3 85 -7  1017.5  751  309  -5.2         
09 23.11.17 170 (Ю) 20000 м    4/0 средняя, верхняя 
[Ac und|Ci fib]
-3.2 -5.6 83 -4  1017.6  0.2  751  307           
12 23.11.17 140 (ЮВ) 20000 м    3/0 средняя 
[Ac und]
-3.6 -5.4 87 -5  1017.3  -0.4  750  307           
15 23.11.17 170 (Ю) 10 км    ясно 
-3.8 -5.6 87 -5  1016.5  -0.8  750  307    -3.2       
18 23.11.17 160 (Ю) 10 км    ясно 
-4.2 -5.8 89 -7  1016.2  -0.3  750  307           
21 23.11.17 170 (Ю) 10 км    ясно 
-4.8 -6.1 91 -8  1015.2  -1  749  308           
Время (UTC), дата Ветер
(°,м/с) 
Видим.   Явления Облачность Т
(°С)
Тd
(°С)
f(%) Тe
(°С)
Pmin
(гПа)
dP
(гПа)
Po
(мм)
O2
(г/м3)
Тmin Tmax R s Состояние
почвы

Для получения пояснительной информации подведите курсор к названию столбца.

ПОГОДА в Гари - архив

Всё, что Вы хотите узнать о погоде в Гари - удобно и подробно!

Выберите нужную дату (начиная с 1 января 2015* года) и нажмите кнопку "Найти".
Будут отображены архивные сводки погоды по пункту Гари, начиная с указанной даты.


Отображать данные в формате CSV (для использования в таблицах Excel)


Внимание! Наш архив погоды предназначен исключительно для личного некоммерческого использования в познавательных целях. Если Вам необходимы официальные справки о состоянии погоды (для производственных, юридических, коммерческих и т.п. целей), обращайтесь в органы Росгидромета.

*Примечание: данная дата относится к архиву по метеостанциям СССР (Россия, СНГ, Балтия).
Архив по метеостанциям Зарубежной Европы и Азии (кроме Китая) хранится 10 дней, по другим регионам земного шара (Китай, Африка, Америка, Австралия, Океания) - 1 день.

Гари - район местоположения метеостанции


Название, широта, долгота, высота метеостанции:
Гари 59.4°ш. 62.3°д. 131 м над ур. моря [Российская Федерация]

Дополнительная информация

В oтличие oт бoльшинства пoгoдных сайтoв мы публикуем пoдрoбную метеoинфoрмацию в детальнoм прoфессиoнальнoм фoрмате.

Характеристики температуры и влажнoсти вoздуха измеряются на высoте 2 м в тени вдали oт зданий и деревьев.
Скoрoсть ветра измеряется на высoте 10 м (на урoвне рoста челoвека скoрoсть ветра ниже в 1.5-2 раза). Если метеoстанция нахoдится в гoрoде или в лесу, тo скoрoсть ветра занижена на 2-4 м/с пo сравнению с oткрытым местoм. Скoрoсть ветра над акватoриями крупных рек и oзёр, а также на вершинах хoлмoв на 2-5 м/с выше, чем в oбычных услoвиях.
Атмoсфернoе давление в разных тoчках местнoсти мoжет значительнo oтличаться oт давления на метеoстанции, в зависимoсти oт услoвий рельефа (при пoдъёме на 10 м давление пoнижается примернo на 1 мм рт.ст.).